Home > Weather > Khan Yunis > Past weeks

Flag for Palestinian Territories Weather for the Past 2 Weeks in Khan Yunis, Gaza Strip, Palestinian Territories

Now
46 °F

Clear.


Feels Like: 46 °F
Forecast: 52 / 70 °F
Wind: 2 mph from South

Location: El Arish

Current Time: Feb 12, 2016 at 3:50:18 AM

Latest Report: Feb 12, 2016 at 2:00 AM


Visibility: 10 mi

Pressure: 30.21 "Hg

Humidity: 100%

Dew point: 46 °F

Location of Khan YunisLocation

Historic Weather in Khan Yunis — Graph

°F

Khan Yunis Temperature Yesterday

Maximum temperature yesterday: 66 °F (at 1:00 PM)
Minimum temperature yesterday: 45 °F (at 6:00 AM)
Average temperature yesterday: 54 °F

High & Low Weather Summary for the Past Weeks

 TemperatureHumidityPressure
High79 °F (Feb 4, 3:00 PM)100% (Jan 28, 2:00 AM)30.45 "Hg (Jan 28, 2:00 AM)
Low36 °F (Jan 28, 6:00 AM)21% (Feb 4, 3:00 PM)29.95 "Hg (Feb 5, 6:00 AM)
Average54 °F82%30.19 "Hg
* Reported Jan 28 2:00 AM — Feb 12 2:00 AM, Khan Yunis, Weather by CustomWeather, © 2016

Note: Actual official high and low records may vary slightly from our data, if they occured in-between our weather recording intervals... More about our weather records

Advertising

Khan Yunis Weather History for the Previous 24 Hours

 ConditionsComfort  
Time TempWeatherWind HumidityBarometerVisibility
2:00 AM
Fri, Feb 12
46 °FClear.2 mph100%30.21 "Hg10 mi
1:00 AM45 °FClear.5 mph100%30.21 "Hg10 mi
12:00 AM46 °FClear.2 mph100%30.21 "Hg10 mi
11:00 PM
Thu, Feb 11
46 °FClear.5 mph100%30.24 "Hg10 mi
10:00 PM48 °FClear.5 mph100%30.24 "Hg10 mi
9:00 PM48 °FClear.2 mph94%30.24 "Hg10 mi
8:00 PM52 °FClear.No wind88%30.24 "Hg10 mi
7:00 PM54 °FClear.No wind88%30.24 "Hg10 mi
6:00 PM57 °FClear.1 mph72%30.24 "Hg10 mi
5:00 PM63 °FSunny.3 mph64%30.21 "Hg10 mi
4:00 PM64 °FSunny.6 mph64%30.21 "Hg10 mi
3:00 PM64 °FSunny.6 mph60%30.21 "Hg10 mi
2:00 PM66 °FPassing clouds.3 mph46%30.21 "HgN/A
1:00 PM66 °FPassing clouds.3 mph49%30.21 "HgN/A
12:00 PM64 °FSunny.5 mph52%30.24 "Hg10 mi
11:00 AM63 °FSunny.5 mph59%30.24 "Hg10 mi
10:00 AM59 °FSunny.5 mph68%30.27 "Hg10 mi
9:00 AM57 °FSunny.3 mph77%30.24 "Hg10 mi
8:00 AM54 °FSunny.3 mph88%30.24 "Hg10 mi
7:00 AM46 °FSunny.5 mph93%30.24 "Hg10 mi
6:00 AM45 °FClear.6 mph100%30.21 "Hg10 mi
5:00 AM46 °FClear.3 mph100%30.21 "Hg10 mi
4:00 AM48 °FClear.5 mph100%30.18 "Hg10 mi
3:00 AM48 °FClear.3 mph100%30.18 "Hg10 mi
Weather by CustomWeather, © 2016

See weather overviewHow to use our weather pages